Regional Weather Roundup
Issued by NWS

Home | Current Version | Previous Version | Text Only | Print | Product List | Glossary On
Versions: 1 2 3 4 5 6 7 8 9 10 11 12 13 14 15 16 17 18 19 20 21 22 23 24 25 26 27 28 29 30 31 32 33 34 35 36 37 38 39 40 41 42 43 44 45 46 47 48 49 50
000
ASUS44 KFWD 020615
RWRTX
NORTH TEXAS HOURLY WEATHER ROUNDUP
NATIONAL WEATHER SERVICE FORT WORTH TX
100 AM CDT TUE JUN 02 2015

NOTE: "FAIR" INDICATES FEW OR NO CLOUDS BELOW 12,000 FEET WITH NO
SIGNIFICANT WEATHER AND/OR OBSTRUCTIONS TO VISIBILITY.

TXZ118-119-020700-
DALLAS/FORT WORTH METROPLEX

CITY           SKY/WX    TMP DP  RH WIND       PRES   REMARKS
DFW AIRPORT    CLEAR     71  61  70 SE3       30.03S
6HR MIN TEMP:  70; 6HR MAX TEMP:  81;

DALLAS LOVE    CLEAR     73  62  68 SE6       30.03F
6HR MIN TEMP:  73; 6HR MAX TEMP:  84;

FTW MEACHAM    CLEAR     72  62  71 SE7       30.03S
6HR MIN TEMP:  72; 6HR MAX TEMP:  84;

DAL-EXECUTIVE  CLEAR     68  62  81 S3        30.04S
6HR MIN TEMP:  68; 6HR MAX TEMP:  83;

FTW-ALLIANCE   CLEAR     69  62  78 S3        30.03F
6HR MIN TEMP:  68; 6HR MAX TEMP:  83;

FTW-NAS-JRB    CLEAR     73  62  68 SE3       30.04S
6HR MIN TEMP:  73; 6HR MAX TEMP:  85;

FTW-SPINKS     CLEAR     69  63  80 SE5       30.05F
6HR MIN TEMP:  69; 6HR MAX TEMP:  84;

ARLINGTON      CLEAR     68  62  81 CALM      30.04S
6HR MIN TEMP:  68; 6HR MAX TEMP:  85;

GRAND PRAIRIE  CLEAR     72  63  72 SE5       30.05S
6HR MIN TEMP:  72; 6HR MAX TEMP:  83;

ADDISON        CLEAR     71  64  77 SE5       30.06S
6HR MIN TEMP:  71; 6HR MAX TEMP:  83;

MESQUITE       CLEAR     69  64  84 CALM      30.04S
6HR MIN TEMP:  68; 6HR MAX TEMP:  82;

LANCASTER      CLEAR     65  62  90 CALM      30.05S
6HR MIN TEMP:  65; 6HR MAX TEMP:  83;

$$

TXZ091>094-102>105-117-120-121-131>134-020700-
NORTH CENTRAL TEXAS

CITY           SKY/WX    TMP DP  RH WIND       PRES   REMARKS
SHRMAN/DENISON CLEAR     67  64  87 SE3       30.06S
6HR MIN TEMP:  66; 6HR MAX TEMP:  81;

GAINESVILLE    CLEAR     67  62  83 CALM      30.07S
6HR MIN TEMP:  67; 6HR MAX TEMP:  81;

BOWIE          CLEAR     65  64  96 CALM      30.04F
6HR MIN TEMP:  65; 6HR MAX TEMP:  78;

BRIDGEPORT     CLEAR     70  65  82 S5        30.06R
6HR MIN TEMP:  69; 6HR MAX TEMP:  83;

DECATUR        CLEAR     67  60  78 CALM      30.05S
6HR MIN TEMP:  66; 6HR MAX TEMP:  80;

DENTON         CLEAR     69  63  81 SE3       30.03F
6HR MIN TEMP:  68; 6HR MAX TEMP:  82;

MCKINNEY       CLEAR     67  66  97 E3        30.04F
6HR MIN TEMP:  67; 6HR MAX TEMP:  80;

GREENVILLE     CLEAR     64  63  94 CALM      30.05S
ROCKWALL       CLEAR     69  62  77 SE7       30.04S
6HR MIN TEMP:  69; 6HR MAX TEMP:  80;

TERRELL        CLEAR     67  64  90 NE3       30.05S
6HR MIN TEMP:  67; 6HR MAX TEMP:  82; 6HR PCP: TRACE;

WAXAHACHIE     CLEAR     69  63  80 CALM      30.05S
6HR MIN TEMP:  67; 6HR MAX TEMP:  82;

CLEBURNE       CLEAR     70  66  88 SE6       30.06S
GRANBURY       CLEAR     73  64  75 SE7       30.05S
6HR MIN TEMP:  73; 6HR MAX TEMP:  85;

$$

TXZ083>090-098>101-113>116-127>130-139>142-154-155-020700-
WESTERN NORTH TEXAS

CITY           SKY/WX    TMP DP  RH WIND       PRES   REMARKS
WICHITA FALLS  CLEAR     69  62  78 S10       30.01F
6HR MIN TEMP:  69; 6HR MAX TEMP:  83; 6HR PCP:  0.01;

WF-KICKAPOO    CLEAR     72  63  72 SE7       30.03S
6HR MIN TEMP:  72; 6HR MAX TEMP:  84;

VERNON         MOCLDY    73  62  68 SE9       30.02S
6HR MIN TEMP:  58; 6HR MAX TEMP:  87;

ABILENE        PTCLDY    71  63  75 S12       30.04S
6HR MIN TEMP:  71; 6HR MAX TEMP:  85;

ABILENE-DYESS  PTCLDY    70  61  74 S10       30.02S
6HR MIN TEMP:  69; 6HR MAX TEMP:  85;

BRECKENRIDGE   CLEAR     74  63  68 SE10      30.02F
6HR MIN TEMP:  74; 6HR MAX TEMP:  86;

GRAHAM         CLEAR     71  66  84 SE5       30.01S
6HR MIN TEMP:  71; 6HR MAX TEMP:  83;

MINERAL WELLS  CLEAR     70  64  81 SE8       30.02F
6HR MIN TEMP:  70; 6HR MAX TEMP:  83;

STEPHENVILLE   CLEAR     70  64  79 CALM      30.08S
6HR MIN TEMP:  70; 6HR MAX TEMP:  83;

COMANCHE       CLEAR     69  65  89 S5        30.05F
6HR MIN TEMP:  69; 6HR MAX TEMP:  83;

BROWNWOOD      PTCLDY    72  64  78 SE7       30.04F
COLEMAN        CLEAR     71  65  81 S6        30.06R
6HR MIN TEMP:  71; 6HR MAX TEMP:  84;

BRADY          CLEAR     70  63  78 SE5       30.05F
$$

TXZ143>147-156>162-174-175-020700-
CENTRAL TEXAS

CITY           SKY/WX    TMP DP  RH WIND       PRES   REMARKS
WACO           CLEAR     69  64  84 CALM      30.03F
6HR MIN TEMP:  69; 6HR MAX TEMP:  84;

WACO-MCGREGOR  CLEAR     72  64  78 SE6       30.04F
6HR MIN TEMP:  72; 6HR MAX TEMP:  84;

HILLSBORO      CLEAR     71  61  70 SE7       30.04S
6HR MIN TEMP:  71; 6HR MAX TEMP:  83;

CORSICANA      CLEAR     70  64  81 SE3       30.05S
6HR MIN TEMP:  69; 6HR MAX TEMP:  83;

MEXIA          CLEAR     69  62  81 E3        30.04S
6HR MIN TEMP:  68; 6HR MAX TEMP:  82; 6HR PCP:  0.01;

HEARNE         CLEAR     70  65  84 CALM      30.04S
6HR MIN TEMP:  70; 6HR MAX TEMP:  84;

CAMERON        CLEAR     73  68  86 CALM      30.03S
6HR MIN TEMP:  73; 6HR MAX TEMP:  84;

TEMPLE         CLEAR     72  63  73 E5        30.03F
6HR MIN TEMP:  72; 6HR MAX TEMP:  82;

KILLEEN        CLEAR     72  66  81 CALM      30.03F
6HR MIN TEMP:  72; 6HR MAX TEMP:  83; 6HR PCP: TRACE;

KILLEEN-SKYLRK CLEAR     73  64  73 SE3       30.04F
6HR MIN TEMP:  73; 6HR MAX TEMP:  82;

FORT HOOD      CLEAR     72  67  82 SE5       30.03F
6HR MIN TEMP:  72; 6HR MAX TEMP:  83;

GATESVILLE     CLEAR     72  66  83 CALM      30.06F
HAMILTON       CLEAR     71  65  80 SE10      30.06F
6HR MIN TEMP:  71; 6HR MAX TEMP:  85;

LAMPASAS       CLEAR     71  67  89 CALM      30.04F
6HR MIN TEMP:  71; 6HR MAX TEMP:  85;

$$

TXZ095>097-106>112-122>126-135>138-148>153-164>167-020700-
EAST TEXAS

CITY           SKY/WX    TMP DP  RH WIND       PRES   REMARKS
PARIS          CLEAR     66  61  82 S5        30.05S
6HR MIN TEMP:  66; 6HR MAX TEMP:  81;

SULPHUR SPRNGS CLEAR     67  66  96 SE3       30.07F
6HR MIN TEMP:  67; 6HR MAX TEMP:  82;

MOUNT PLEASANT CLEAR     66  65  99 CALM      30.07S
6HR MIN TEMP:  65; 6HR MAX TEMP:  80;

GILMER         CLEAR    N/A N/A N/A CALM      30.05S
MINEOLA        CLEAR     64  64 100 CALM      30.06S FOG
TYLER          CLEAR     69  64  84 CALM      30.04F
6HR MIN TEMP:  69; 6HR MAX TEMP:  79;

LONGVIEW       CLEAR     69  65  86 CALM      30.04F
6HR MIN TEMP:  68; 6HR MAX TEMP:  82;

MARSHALL       CLEAR     68  66  93 CALM      30.06F
6HR MIN TEMP:  68; 6HR MAX TEMP:  81;

ATHENS         CLEAR     63  63 100 CALM      30.03F
PALESTINE      CLEAR     65  63  93 CALM      30.05F
JACKSONVILLE   CLEAR     69  62  77 CALM      30.07S
HENDERSON      CLEAR     65  65  97 MISG      30.06S
6HR MIN TEMP:  65; 6HR MAX TEMP:  79;

NACOGDOCHES    CLEAR     64  61  88 CALM      30.03F
6HR MIN TEMP:  61; 6HR MAX TEMP:  82;

LUFKIN         CLEAR     69  64  84 CALM      30.03F
6HR MIN TEMP:  69; 6HR MAX TEMP:  85;

$$

SUPPLEMENTAL OBSERVATIONS (CENTRAL)

CITY           SKY/WX    TMP DP  RH WIND       PRES   REMARKS
LAKE TEXOMA      N/A     68  63  83 E3          N/A
PAT MAYSE LAKE   N/A     70  66  88 SE6         N/A
GREENVILLE       N/A     66  63  88 CALM        N/A
CEDAR HILL       N/A     72  61  68 SE6         N/A
ATHENS           N/A     64  61  88 N1          N/A



USA.gov is the U.S. government's official web portal to all federal, state and local government web resources and services.